AVR4833 SKBO-SKIB

Flight info

Callsign AVR4833
Flight time 0h 31m
Altitude 16000
Route SILEG5E SILEG SILEG3G
Aircraft A320/M-SDE3FGHIRWY/LB1

Departure

Time 2026-05-06 21:10
Airport El Dorado International Airport (SKBO)

Arrival

Time 2026-05-06 21:42
Airport Perales Airport (SKIB)
Time Latitude Longitude Altitude Speed Heading
2026-05-06 20:41 4.69743 -74.14656 8373 ft 0 kts 218°
2026-05-06 21:01 4.69746 -74.14654 8373 ft 3 kts 218°
2026-05-06 21:01 4.69762 -74.14642 8373 ft 2 kts 217°
2026-05-06 21:02 4.69777 -74.14627 8373 ft 3 kts 249°
2026-05-06 21:02 4.69778 -74.14610 8373 ft 3 kts 308°
2026-05-06 21:02 4.69762 -74.14594 8373 ft 3 kts 314°
2026-05-06 21:02 4.69760 -74.14593 8373 ft 3 kts 307°
2026-05-06 21:03 4.69774 -74.14611 8372 ft 3 kts 307°
2026-05-06 21:03 4.69787 -74.14629 8373 ft 3 kts 307°
2026-05-06 21:03 4.69791 -74.14634 8373 ft 0 kts 307°
2026-05-06 21:05 4.69796 -74.14641 8373 ft 6 kts 307°
2026-05-06 21:05 4.69840 -74.14699 8370 ft 12 kts 307°
2026-05-06 21:05 4.69885 -74.14759 8373 ft 10 kts 306°
2026-05-06 21:06 4.69929 -74.14819 8373 ft 10 kts 307°
2026-05-06 21:06 4.69932 -74.14886 8373 ft 13 kts 224°
2026-05-06 21:06 4.69859 -74.14949 8373 ft 12 kts 245°
2026-05-06 21:06 4.69892 -74.15025 8373 ft 12 kts 306°
2026-05-06 21:07 4.69940 -74.15089 8373 ft 12 kts 307°
2026-05-06 21:07 4.69994 -74.15159 8373 ft 15 kts 308°
2026-05-06 21:07 4.70069 -74.15258 8373 ft 19 kts 307°
2026-05-06 21:07 4.70153 -74.15368 8373 ft 21 kts 307°
2026-05-06 21:08 4.70246 -74.15492 8373 ft 25 kts 307°
2026-05-06 21:08 4.70361 -74.15645 8373 ft 28 kts 307°
2026-05-06 21:08 4.70475 -74.15796 8373 ft 23 kts 307°
2026-05-06 21:08 4.70513 -74.15884 8373 ft 10 kts 253°
2026-05-06 21:09 4.70464 -74.15930 8373 ft 10 kts 217°
2026-05-06 21:09 4.70414 -74.15970 8373 ft 9 kts 218°
2026-05-06 21:09 4.70366 -74.16007 8374 ft 8 kts 169°
2026-05-06 21:09 4.70326 -74.15953 8373 ft 14 kts 126°
2026-05-06 21:10 4.70141 -74.15707 8373 ft 82 kts 127°
2026-05-06 21:10 4.69654 -74.15064 8371 ft 147 kts 127°
2026-05-06 21:10 4.68941 -74.14111 8555 ft 184 kts 126°
2026-05-06 21:10 4.68096 -74.13156 9316 ft 186 kts 148°
2026-05-06 21:11 4.66871 -74.12867 9800 ft 185 kts 191°
2026-05-06 21:11 4.65769 -74.13489 10179 ft 186 kts 234°
2026-05-06 21:11 4.65097 -74.14589 10649 ft 185 kts 240°
2026-05-06 21:11 4.64466 -74.15697 11105 ft 185 kts 240°
2026-05-06 21:12 4.63826 -74.16823 11537 ft 188 kts 240°
2026-05-06 21:12 4.63148 -74.18011 11720 ft 206 kts 240°
2026-05-06 21:12 4.62404 -74.19309 11875 ft 224 kts 239°
2026-05-06 21:12 4.61632 -74.20744 12007 ft 244 kts 249°
2026-05-06 21:13 4.61226 -74.22457 12159 ft 262 kts 259°
2026-05-06 21:13 4.60871 -74.24315 12350 ft 282 kts 259°
2026-05-06 21:13 4.60491 -74.26321 12559 ft 305 kts 259°
2026-05-06 21:13 4.60059 -74.28481 12766 ft 328 kts 258°
2026-05-06 21:14 4.59526 -74.30785 12951 ft 350 kts 256°
2026-05-06 21:14 4.58921 -74.33203 13274 ft 364 kts 256°
2026-05-06 21:14 4.58286 -74.35684 13809 ft 371 kts 256°
2026-05-06 21:14 4.57639 -74.38201 14417 ft 376 kts 256°
2026-05-06 21:15 4.56991 -74.40747 15049 ft 379 kts 256°
2026-05-06 21:15 4.56346 -74.43320 15592 ft 383 kts 256°
2026-05-06 21:15 4.55704 -74.45921 15751 ft 386 kts 256°
2026-05-06 21:15 4.55059 -74.48542 15767 ft 387 kts 256°
2026-05-06 21:16 4.54413 -74.51162 15748 ft 388 kts 256°
2026-05-06 21:16 4.53770 -74.53769 15706 ft 379 kts 256°
2026-05-06 21:16 4.53149 -74.56280 15691 ft 363 kts 256°
2026-05-06 21:16 4.52551 -74.58688 15572 ft 348 kts 256°
2026-05-06 21:17 4.51985 -74.60969 15446 ft 327 kts 256°
2026-05-06 21:17 4.51444 -74.63157 14957 ft 321 kts 256°
2026-05-06 21:17 4.50909 -74.65318 14421 ft 317 kts 256°
2026-05-06 21:17 4.50380 -74.67451 13892 ft 314 kts 256°
2026-05-06 21:18 4.49856 -74.69564 13361 ft 310 kts 256°
2026-05-06 21:18 4.49340 -74.71651 12808 ft 307 kts 256°
2026-05-06 21:18 4.48829 -74.73720 12271 ft 305 kts 256°
2026-05-06 21:18 4.48322 -74.75769 11739 ft 301 kts 256°
2026-05-06 21:19 4.47819 -74.77795 11210 ft 298 kts 256°
2026-05-06 21:19 4.47321 -74.79796 10661 ft 295 kts 256°
2026-05-06 21:19 4.46827 -74.81784 10078 ft 292 kts 256°
2026-05-06 21:19 4.46339 -74.83754 9496 ft 290 kts 256°
2026-05-06 21:20 4.45856 -74.85705 8920 ft 287 kts 256°
2026-05-06 21:20 4.45379 -74.87636 8347 ft 284 kts 256°
2026-05-06 21:20 4.44914 -74.89516 8078 ft 268 kts 256°
2026-05-06 21:20 4.44476 -74.91272 7897 ft 253 kts 254°
2026-05-06 21:21 4.43781 -74.92835 7574 ft 244 kts 233°
2026-05-06 21:21 4.42572 -74.93998 7133 ft 240 kts 210°
2026-05-06 21:21 4.41077 -74.94602 6995 ft 227 kts 190°
2026-05-06 21:21 4.39540 -74.94832 6870 ft 221 kts 187°
2026-05-06 21:22 4.38042 -74.95105 6657 ft 217 kts 197°
2026-05-06 21:22 4.36695 -74.95775 6390 ft 217 kts 216°
2026-05-06 21:22 4.35544 -74.96755 6147 ft 217 kts 220°
2026-05-06 21:22 4.34402 -74.97742 5935 ft 216 kts 220°
2026-05-06 21:23 4.33261 -74.98724 5862 ft 216 kts 220°
2026-05-06 21:23 4.32231 -74.99805 5897 ft 216 kts 239°
2026-05-06 21:23 4.31839 -75.01225 5876 ft 208 kts 271°
2026-05-06 21:23 4.32181 -75.02557 5869 ft 191 kts 299°
2026-05-06 21:24 4.32822 -75.03686 5900 ft 185 kts 300°
2026-05-06 21:24 4.33451 -75.04800 5918 ft 184 kts 300°
2026-05-06 21:24 4.34079 -75.05917 5929 ft 185 kts 300°
2026-05-06 21:24 4.34710 -75.07037 5916 ft 185 kts 299°
2026-05-06 21:25 4.35340 -75.08154 5936 ft 184 kts 299°
2026-05-06 21:25 4.35961 -75.09252 5942 ft 175 kts 300°
2026-05-06 21:25 4.36529 -75.10257 5964 ft 163 kts 299°
2026-05-06 21:25 4.37084 -75.11236 5930 ft 161 kts 299°
2026-05-06 21:26 4.37632 -75.12208 5946 ft 160 kts 299°
2026-05-06 21:26 4.38185 -75.13189 5949 ft 160 kts 299°
2026-05-06 21:26 4.38723 -75.14145 5951 ft 160 kts 299°
2026-05-06 21:26 4.39279 -75.15130 5643 ft 164 kts 299°
2026-05-06 21:27 4.39840 -75.16115 5303 ft 161 kts 298°
2026-05-06 21:27 4.40388 -75.17089 4990 ft 159 kts 298°
2026-05-06 21:27 4.40941 -75.18050 4682 ft 158 kts 303°
2026-05-06 21:27 4.41791 -75.18741 4504 ft 160 kts 338°
2026-05-06 21:28 4.42880 -75.18878 4324 ft 159 kts 11°
2026-05-06 21:28 4.43864 -75.18430 4152 ft 156 kts 44°
2026-05-06 21:28 4.44462 -75.17557 3975 ft 152 kts 74°
2026-05-06 21:28 4.44546 -75.16530 3811 ft 147 kts 104°
2026-05-06 21:29 4.44130 -75.15626 3640 ft 142 kts 130°
2026-05-06 21:29 4.43483 -75.14876 3406 ft 142 kts 133°
2026-05-06 21:29 4.42824 -75.14124 3142 ft 144 kts 130°
2026-05-06 21:29 4.42199 -75.13394 3050 ft 132 kts 133°
2026-05-06 21:30 4.41506 -75.12577 3304 ft 173 kts 132°
2026-05-06 21:30 4.40705 -75.11616 4284 ft 177 kts 131°
2026-05-06 21:30 4.39934 -75.10692 5245 ft 172 kts 133°
2026-05-06 21:30 4.39089 -75.09850 5814 ft 171 kts 135°
2026-05-06 21:31 4.38310 -75.08962 6384 ft 168 kts 116°
2026-05-06 21:31 4.38228 -75.07833 6826 ft 174 kts 66°
2026-05-06 21:31 4.39083 -75.06965 7186 ft 182 kts 32°
2026-05-06 21:31 4.40152 -75.06265 7639 ft 186 kts 32°
2026-05-06 21:32 4.41395 -75.05891 7925 ft 193 kts 359°
2026-05-06 21:32 4.44097 -75.05869 7941 ft 222 kts 34°
2026-05-06 21:32 4.45069 -75.04617 7914 ft 238 kts 75°
2026-05-06 21:33 4.45083 -75.02961 7931 ft 242 kts 100°
2026-05-06 21:33 4.44781 -75.01294 7924 ft 243 kts 100°
2026-05-06 21:33 4.44493 -74.99621 7912 ft 244 kts 99°
2026-05-06 21:33 4.44321 -74.98506 7899 ft 244 kts 98°
2026-05-06 21:34 4.44086 -74.96826 7902 ft 244 kts 97°
2026-05-06 21:34 4.43631 -74.95204 7885 ft 244 kts 123°
2026-05-06 21:34 4.42349 -74.94139 7764 ft 243 kts 162°
2026-05-06 21:34 4.40671 -74.93999 7646 ft 245 kts 186°
2026-05-06 21:35 4.38988 -74.94308 7515 ft 247 kts 193°
2026-05-06 21:35 4.37405 -74.94936 7388 ft 246 kts 214°
2026-05-06 21:35 4.36141 -74.96092 7263 ft 247 kts 227°
2026-05-06 21:35 4.34929 -74.97306 7138 ft 246 kts 222°
2026-05-06 21:36 4.33652 -74.98449 7027 ft 246 kts 220°
2026-05-06 21:36 4.32418 -74.99626 6934 ft 245 kts 235°
2026-05-06 21:36 4.31866 -75.01205 6861 ft 242 kts 271°
2026-05-06 21:36 4.32289 -75.02811 6756 ft 239 kts 298°
2026-05-06 21:37 4.33097 -75.04255 6464 ft 237 kts 300°
2026-05-06 21:37 4.33919 -75.05688 6173 ft 238 kts 300°
2026-05-06 21:37 4.34740 -75.07122 5940 ft 234 kts 300°
2026-05-06 21:37 4.35528 -75.08503 5931 ft 222 kts 300°
2026-05-06 21:38 4.36284 -75.09832 5948 ft 215 kts 300°
2026-05-06 21:38 4.36988 -75.11079 5966 ft 196 kts 299°
2026-05-06 21:38 4.37622 -75.12201 5944 ft 178 kts 299°
2026-05-06 21:38 4.38203 -75.13231 5957 ft 165 kts 299°
2026-05-06 21:39 4.38761 -75.14217 5948 ft 161 kts 299°
2026-05-06 21:39 4.39323 -75.15206 5622 ft 164 kts 299°
2026-05-06 21:39 4.39879 -75.16188 5285 ft 160 kts 298°
2026-05-06 21:39 4.40427 -75.17156 4971 ft 159 kts 298°
2026-05-06 21:40 4.40989 -75.18109 4677 ft 158 kts 307°
2026-05-06 21:40 4.41865 -75.18763 4514 ft 160 kts 340°
2026-05-06 21:40 4.42955 -75.18858 4332 ft 158 kts 13°
2026-05-06 21:40 4.43918 -75.18377 4165 ft 155 kts 46°
2026-05-06 21:41 4.44489 -75.17492 3988 ft 151 kts 76°
2026-05-06 21:41 4.44539 -75.16469 3826 ft 147 kts 105°
2026-05-06 21:41 4.44099 -75.15579 3668 ft 141 kts 133°
2026-05-06 21:41 4.43440 -75.14843 3411 ft 142 kts 133°
2026-05-06 21:42 4.42804 -75.14098 3136 ft 143 kts 131°
2026-05-06 21:42 4.42186 -75.13384 3042 ft 115 kts 131°
2026-05-06 21:42 4.41899 -75.13060 3034 ft 36 kts 131°
2026-05-06 21:42 4.41750 -75.12888 3033 ft 28 kts 130°
2026-05-06 21:43 4.41675 -75.12789 3033 ft 14 kts 105°
2026-05-06 21:43 4.41657 -75.12762 3031 ft 2 kts 229°
2026-05-06 21:43 4.41684 -75.12811 3033 ft 12 kts 310°
2026-05-06 21:43 4.41738 -75.12872 3034 ft 11 kts 312°
2026-05-06 21:44 4.41783 -75.12923 3031 ft 9 kts 310°
2026-05-06 21:44 4.41835 -75.12982 3034 ft 14 kts 310°
2026-05-06 21:44 4.41905 -75.13064 3037 ft 16 kts 311°
2026-05-06 21:44 4.41976 -75.13147 3036 ft 15 kts 310°
2026-05-06 21:45 4.42048 -75.13229 3039 ft 16 kts 311°
2026-05-06 21:45 4.42117 -75.13309 3040 ft 16 kts 311°
2026-05-06 21:45 4.42196 -75.13400 3042 ft 18 kts 311°
2026-05-06 21:45 4.42284 -75.13501 3044 ft 20 kts 311°
2026-05-06 21:46 4.42377 -75.13606 3044 ft 21 kts 311°
2026-05-06 21:46 4.42473 -75.13717 3046 ft 21 kts 310°
2026-05-06 21:46 4.42570 -75.13830 3047 ft 22 kts 311°
2026-05-06 21:46 4.42669 -75.13944 3048 ft 14 kts 311°
2026-05-06 21:47 4.42649 -75.14009 3049 ft 9 kts 222°
2026-05-06 21:47 4.42611 -75.14003 3049 ft 4 kts 135°
2026-05-06 21:47 4.42604 -75.13996 3049 ft 0 kts 133°
2026-05-06 21:48 4.42599 -75.13991 3048 ft 2 kts 133°
2026-05-06 21:48 4.42576 -75.13975 3049 ft 3 kts 184°
2026-05-06 21:48 4.42555 -75.13991 3050 ft 6 kts 224°
2026-05-06 21:49 4.42546 -75.14000 3050 ft 0 kts 221°